Location: Newark
(34.1333°N, 7.9667°W)
Time: 14:47:21
(UTC+00:00)

deb S5M - Pass Details

Date: 23 October 2021
Orbit: 753 x 891 km, 82.3° (Epoch: 09 December)

Event Time Altitude Azimuth Distance (km) Brightness Sun altitude
Rises 02:57:19 0° 13° (NNE) 3,387 ? -46.9°
Enters shadow 02:57:26 - 13° (NNE) 3,351 ? -46.9°
Exits shadow 03:09:04 - 122° (ESE) 2,820 ? -44.6°
Sets 03:11:14 0° 133° (SE) 3,469 ? -44.2°
